Regional Weather Roundup
Issued by NWS

Home | Current Version | Previous Version | Graphics & Text | Print | Product List | Glossary On
Versions: 1 2 3 4 5 6 7 8 9 10 11 12 13 14 15 16 17 18 19 20 21 22 23 24 25 26 27 28 29 30 31 32 33 34 35 36 37 38 39 40 41 42 43 44 45 46 47 48 49 50
000
ASUS45 KBOU 221407
RWRCO

WEATHER ROUNDUP FOR COLORADO
NATIONAL WEATHER SERVICE DENVER/BOULDER CO
800 AM MDT THU JUN 22 2017

NOTE: "FAIR" INDICATES FEW OR NO CLOUDS BELOW 12000 FEET WITH NO
SIGNIFICANT WEATHER AND/OR OBSTRUCTIONS TO VISIBILITY.

COZ001>005-013-030-031-221500-
...NORTHWEST COLORADO...

CITY           SKY/WX    TMP DP  RH WIND       PRES   REMARKS
CRAIG          FAIR      62  47  57 SW5       30.06R
HAYDEN         FAIR      63  43  48 E12       30.09S
MEEKER         FAIR      62  44  51 S3        30.07S
RABBIT EARS PA FAIR      55  34  44 W5        30.37S
STEAMBOAT SPGS FAIR      57  43  59 NW5       30.12R
WALDEN         FAIR      63  39  42 SW8       30.17F
$$

COZ006>008-011-221500-
...WEST CENTRAL VALLEYS...

CITY           SKY/WX    TMP DP  RH WIND       PRES   REMARKS
GRAND JUNCTION FAIR      74  42  31 SE6       29.93R
MONTROSE       FAIR      71  38  29 SE12      30.03F
EAGLE          SUNNY     61  39  44 CALM      30.15S
RIFLE          FAIR      65  41  41 SE3       30.02S
DELTA          FAIR      73  39  29 NE7       30.00S
NUCLA          FAIR      72  34  25 S3        30.08R
$$

COZ017>023-064>068-221500-
...SOUTHWEST COLORADO...

CITY           SKY/WX    TMP DP  RH WIND       PRES   REMARKS
DURANGO        FAIR      65  38  36 NE5       30.11S
CORTEZ         FAIR      64  45  49 SE7       30.08R
PAGOSA SPRINGS FAIR      64  32  30 CALM      30.21S
TELLURIDE      FAIR      63  37  38 E3        30.34R
WOLF CREEK PAS FAIR      54  28  37 S12       30.58S
$$

COZ009-010-012-014-032>034-037-058>063-221500-
...CENTRAL COLORADO...

CITY           SKY/WX    TMP DP  RH WIND       PRES   REMARKS
ASPEN          FAIR      59  40  49 S3        30.17F
BUENA VISTA    FAIR      60  32  34 CALM      30.22F
COPPER MTN     FAIR      59  27  29 SW13G18   30.51R
BERTHOUD PASS  FAIR      50  36  57 W30G38    30.50S
COTTONWOOD PAS FAIR      63  32  31 NW7       30.36F
GUNNISON       FAIR      55  41  59 CALM      30.25F
KREMMLING      NOT AVBL
LEADVILLE      FAIR      51  32  48 CALM      30.35R
MONARCH PASS   PTSUNNY   52  30  43 W23       30.64S
SALIDA         FAIR      62  33  33 CALM      30.29R
SUNLIGHT       FAIR      55  30  38 SW9G17    30.42S
WILKERSON PASS FAIR      55  27  33 SW8       30.48R
$$

COZ069>075-221500-
...SAN LUIS VALLEY/SANGRE DE CRISTO MOUNTAINS...

CITY           SKY/WX    TMP DP  RH WIND       PRES   REMARKS
ALAMOSA        FAIR      58  42  55 CALM      30.19S
DEL NORTE      FAIR      63  33  32 W16       30.23R
LA VETA PASS   FAIR      59  32  36 SW17G30   30.49S
SAGUACHE       FAIR      63  32  31 W7        30.23R
$$

COZ035-036-038>040-221500-
...NORTHERN COLORADO FRONT RANGE...

CITY           SKY/WX    TMP DP  RH WIND       PRES   REMARKS
DENVER INTL AP PTSUNNY   81  38  21 SW14      29.93R
DMNS CITY PARK   N/A     73  42  32 S2G8      29.93S
AURORA         PTSUNNY   74  41  29 SW10      29.96R
FRONT RANGE AP PTSUNNY   84  39  20 SW13      29.94R
ERIE MUNI ARPT FAIR      75  48  38 SW5       29.91R
BOULDER MUN AP FAIR      77  45  31 W5        29.92R
CENTENNIAL     PTSUNNY   75  39  27 CALM      29.97S
BROOMFIELD     PTSUNNY   75  41  29 W9        29.95S
FORT COLLINS   FAIR      73  49  42 CALM      29.90R
LONGMONT       FAIR      78  47  34 CALM      29.92R
$$

COZ041-046-047-076>085-087-088-221500-
...PIKES PEAK/PALMER DIVIDE AND SOUTHERN FOOTHILLS...

CITY           SKY/WX    TMP DP  RH WIND       PRES   REMARKS
COLO. SPRINGS  PTSUNNY   77  39  25 NE3       30.01S
A. F. ACADEMY  FAIR      74  41  29 N8        30.03S
SCHRIEVER AFB  NOT AVBL
CHEYENNE MTN   NOT AVBL
ELLICOTT       FAIR     N/A N/A N/A CALM      29.99S
FALCON           N/A     81  31  16 NW9G20    30.07S
FORT CARSON    FAIR      72  39  30 NW3       29.97F
LIMON          FAIR      75  39  27 NW6       29.93F
MONUMENT HILL  FAIR      72  41  33 SW7       30.09F
CANON CITY     SUNNY     79  37  22 W16       29.96S
WALSENBURG     FAIR      70  41  35 SW7       30.03R
TRINIDAD       FAIR      74  48  39 W18G28    29.99S
$$

COZ042>045-048>051-090-091-221500-
...NORTHEAST COLORADO...

CITY           SKY/WX    TMP DP  RH WIND       PRES   REMARKS
GREELEY ARPT   FAIR      72  51  47 SW5       29.88S
AKRON          FAIR      76  41  28 NW13      29.86S
BURLINGTON     FAIR      80  54  40 W9        29.82S
WRAY           FAIR      81  43  26 W14       29.77S
YUMA           NOT AVBL
STERLING       FAIR      72  52  49 W5        29.82R
HOLYOKE        NOT AVBL
FORT MORGAN    FAIR      78  44  28 W5        29.86S
$$

COZ086-089-092>099-221500-
...SOUTHEAST COLORADO...

CITY           SKY/WX    TMP DP  RH WIND       PRES   REMARKS
PUEBLO         FAIR      65  50  58 W6        29.91F
LA JUNTA       FAIR      76  54  46 W12       29.86S
LAMAR          FAIR      77  55  46 W15       29.80S
SPRINGFIELD      N/A     74  57  55 W10       29.85F
$$



USA.gov is the U.S. government's official web portal to all federal, state and local government web resources and services.